| time (UTC) | temp F | wind direction | speed MPH | gust MPH | rain 1hr in | rain 24hr in | rain mn in | humidity % | barometer mb |
| 20260504204106 | 76 | 221 | 9.0 | 12.0 | 0.00 | 0.00 | 0.00 | 37 | 1011.6 |
| 20260504203604 | 76 | 232 | 8.0 | 12.0 | 0.00 | 0.00 | 0.00 | 39 | 1012.0 |
| 20260504203102 | 76 | 210 | 5.0 | 8.0 | 0.00 | 0.00 | 0.00 | 39 | 1012.0 |
| 20260504202556 | 75 | 230 | 8.0 | 15.0 | 0.00 | 0.00 | 0.00 | 40 | 1012.0 |
| 20260504202054 | 76 | 198 | 5.0 | 10.0 | 0.00 | 0.00 | 0.00 | 40 | 1012.0 |
| 20260504201550 | 77 | 208 | 2.0 | 4.0 | 0.00 | 0.00 | 0.00 | 39 | 1012.0 |
| 20260504201049 | 77 | 233 | 5.0 | 8.0 | 0.00 | 0.00 | 0.00 | 40 | 1012.0 |
| 20260504200544 | 75 | 247 | 4.0 | 7.0 | 0.00 | 0.00 | 0.00 | 40 | 1012.0 |
| 20260504200042 | 76 | 231 | 4.0 | 6.0 | 0.00 | 0.00 | 0.00 | 41 | 1012.0 |
| 20260504195537 | 75 | 178 | 2.0 | 5.0 | 0.00 | 0.00 | 0.00 | 41 | 1012.3 |
| 20260504195034 | 74 | 234 | 0.0 | 3.0 | 0.00 | 0.00 | 0.00 | 41 | 1012.3 |
| 20260504194531 | 74 | 243 | 4.0 | 6.0 | 0.00 | 0.00 | 0.00 | 40 | 1012.3 |
| 20260504194026 | 73 | 236 | 4.0 | 6.0 | 0.00 | 0.00 | 0.00 | 41 | 1012.6 |
| 20260504193523 | 74 | 195 | 3.0 | 5.0 | 0.00 | 0.00 | 0.00 | 40 | 1012.6 |
| 20260504193022 | 73 | 198 | 3.0 | 7.0 | 0.00 | 0.00 | 0.00 | 40 | 1012.6 |
| 20260504192520 | 74 | 202 | 3.0 | 5.0 | 0.00 | 0.00 | 0.00 | 40 | 1012.6 |
| 20260504192018 | 74 | 195 | 5.0 | 7.0 | 0.00 | 0.00 | 0.00 | 38 | 1012.6 |
| 20260504191515 | 74 | 222 | 4.0 | 7.0 | 0.00 | 0.00 | 0.00 | 39 | 1013.0 |
| 20260504191011 | 74 | 168 | 5.0 | 8.0 | 0.00 | 0.00 | 0.00 | 40 | 1013.0 |
| 20260504190507 | 74 | 198 | 5.0 | 8.0 | 0.00 | 0.00 | 0.00 | 39 | 1013.0 |
| 20260504190003 | 75 | 179 | 4.0 | 5.0 | 0.00 | 0.00 | 0.00 | 38 | 1013.0 |
| 20260504185501 | 76 | 173 | 4.0 | 6.0 | 0.00 | 0.00 | 0.00 | 39 | 1013.0 |
| 20260504184957 | 75 | 199 | 3.0 | 5.0 | 0.00 | 0.00 | 0.00 | 40 | 1013.0 |
| 20260504184452 | 73 | 171 | 4.0 | 7.0 | 0.00 | 0.00 | 0.00 | 39 | 1013.0 |
| 20260504183948 | 74 | 213 | 3.0 | 6.0 | 0.00 | 0.00 | 0.00 | 39 | 1013.3 |
| 20260504183446 | 73 | 149 | 2.0 | 4.0 | 0.00 | 0.00 | 0.00 | 40 | 1013.3 |
| 20260504182944 | 73 | 190 | 3.0 | 5.0 | 0.00 | 0.00 | 0.00 | 40 | 1013.7 |
| 20260504182440 | 72 | 210 | 3.0 | 7.0 | 0.00 | 0.00 | 0.00 | 40 | 1013.7 |
| 20260504181938 | 73 | 224 | 8.0 | 11.0 | 0.00 | 0.00 | 0.00 | 39 | 1013.7 |
| 20260504181434 | 74 | 237 | 3.0 | 6.0 | 0.00 | 0.00 | 0.00 | 39 | 1013.7 |
| 20260504180933 | 74 | 248 | 7.0 | 10.0 | 0.00 | 0.00 | 0.00 | 38 | 1013.7 |
| 20260504180432 | 73 | 204 | 4.0 | 7.0 | 0.00 | 0.00 | 0.00 | 39 | 1014.0 |
| 20260504175930 | 72 | 221 | 4.0 | 7.0 | 0.00 | 0.00 | 0.00 | 40 | 1014.0 |
| 20260504175426 | 72 | 217 | 3.0 | 6.0 | 0.00 | 0.00 | 0.00 | 40 | 1014.3 |
| 20260504174924 | 72 | 194 | 3.0 | 7.0 | 0.00 | 0.00 | 0.00 | 40 | 1014.3 |
| 20260504174421 | 71 | 222 | 3.0 | 5.0 | 0.00 | 0.00 | 0.00 | 40 | 1014.3 |
| 20260504173919 | 71 | 241 | 5.0 | 9.0 | 0.00 | 0.00 | 0.00 | 39 | 1014.3 |
| 20260504173415 | 73 | 247 | 8.0 | 13.0 | 0.00 | 0.00 | 0.00 | 40 | 1014.0 |
| 20260504172913 | 71 | 221 | 7.0 | 11.0 | 0.00 | 0.00 | 0.00 | 40 | 1014.0 |
| 20260504172408 | 70 | 238 | 6.0 | 8.0 | 0.00 | 0.00 | 0.00 | 41 | 1014.3 |
| 20260504171905 | 70 | 246 | 9.0 | 12.0 | 0.00 | 0.00 | 0.00 | 42 | 1014.3 |
| 20260504171402 | 70 | 233 | 7.0 | 13.0 | 0.00 | 0.00 | 0.00 | 42 | 1014.7 |
| 20260504170859 | 70 | 237 | 9.0 | 12.0 | 0.00 | 0.00 | 0.00 | 42 | 1014.7 |
| 20260504170355 | 69 | 227 | 7.0 | 11.0 | 0.00 | 0.00 | 0.00 | 44 | 1014.7 |
| 20260504160314 | 68 | 184 | 6.0 | 9.0 | 0.00 | 0.00 | 0.00 | 42 | 1015.0 |
| 20260504150739 | 68 | 219 | 6.0 | 9.0 | 0.00 | 0.00 | 0.00 | 40 | 1015.4 |
| 20260504150236 | 68 | 236 | 8.0 | 11.0 | 0.00 | 0.00 | 0.00 | 40 | 1015.4 |
| 20260504141205 | 66 | 173 | 2.0 | 4.0 | 0.00 | 0.00 | 0.00 | 41 | 1015.8 |
| 20260504140702 | 66 | 232 | 2.0 | 5.0 | 0.00 | 0.00 | 0.00 | 43 | 1015.4 |
| 20260504140158 | 64 | 188 | 2.0 | 4.0 | 0.00 | 0.00 | 0.00 | 42 | 1015.8 |
| 20260504130626 | 59 | 125 | 2.0 | 3.0 | 0.00 | 0.00 | 0.00 | 56 | 1016.5 |
| 20260504130123 | 59 | 125 | 0.0 | 2.0 | 0.00 | 0.00 | 0.00 | 58 | 1016.5 |
| 20260504110514 | 44 | 320 | 0.0 | 0.0 | 0.00 | 0.00 | 0.00 | 91 | 1016.8 |
| 20260504100436 | 46 | 320 | 0.0 | 0.0 | 0.00 | 0.00 | 0.00 | 90 | 1016.5 |
| 20260504081829 | 46 | 320 | 0.0 | 0.0 | 0.00 | 0.00 | 0.00 | 86 | 1016.5 |
| 20260504081326 | 46 | 320 | 0.0 | 0.0 | 0.00 | 0.00 | 0.00 | 87 | 1016.5 |
| 20260504080816 | 46 | 320 | 0.0 | 0.0 | 0.00 | 0.00 | 0.00 | 84 | 1016.8 |
| 20260504080313 | 46 | 320 | 0.0 | 0.0 | 0.00 | 0.00 | 0.00 | 84 | 1016.5 |
| 20260504070240 | 46 | 320 | 0.0 | 0.0 | 0.00 | 0.00 | 0.00 | 88 | 1016.5 |
| 20260504060201 | 46 | 320 | 0.0 | 0.0 | 0.00 | 0.00 | 0.00 | 84 | 1016.8 |
| 20260504050629 | 47 | 320 | 0.0 | 0.0 | 0.00 | 0.00 | 0.00 | 86 | 1016.8 |
| 20260504050126 | 46 | 320 | 0.0 | 0.0 | 0.00 | 0.00 | 0.00 | 83 | 1016.8 |
| 20260504045623 | 46 | 320 | 0.0 | 0.0 | 0.00 | 0.00 | 0.00 | 82 | 1016.8 |
| 20260504045118 | 46 | 320 | 0.0 | 0.0 | 0.00 | 0.00 | 0.00 | 83 | 1016.8 |
| 20260504044616 | 47 | 320 | 0.0 | 0.0 | 0.00 | 0.00 | 0.00 | 82 | 1016.8 |
| 20260504044112 | 47 | 320 | 0.0 | 0.0 | 0.00 | 0.00 | 0.00 | 81 | 1016.8 |
| 20260504043609 | 46 | 320 | 0.0 | 0.0 | 0.00 | 0.00 | 0.00 | 82 | 1016.8 |
| 20260504043107 | 46 | 320 | 0.0 | 0.0 | 0.00 | 0.00 | 0.00 | 81 | 1016.8 |
| 20260504042604 | 46 | 320 | 0.0 | 0.0 | 0.00 | 0.00 | 0.00 | 81 | 1016.8 |
| 20260504042100 | 47 | 320 | 0.0 | 0.0 | 0.00 | 0.00 | 0.00 | 79 | 1016.8 |
| 20260504041556 | 47 | 320 | 0.0 | 0.0 | 0.00 | 0.00 | 0.00 | 78 | 1016.8 |
| 20260504041053 | 47 | 320 | 0.0 | 0.0 | 0.00 | 0.00 | 0.00 | 77 | 1016.8 |
| 20260504040550 | 46 | 320 | 0.0 | 0.0 | 0.00 | 0.00 | 0.00 | 77 | 1016.8 |
| 20260504040047 | 46 | 320 | 0.0 | 0.0 | 0.00 | 0.00 | 0.00 | 78 | 1016.8 |
| 20260504035543 | 46 | 320 | 0.0 | 0.0 | 0.00 | 0.00 | 0.00 | 78 | 1016.8 |
| 20260504035040 | 46 | 320 | 0.0 | 0.0 | 0.00 | 0.00 | 0.00 | 79 | 1016.8 |
| 20260504034538 | 46 | 320 | 0.0 | 0.0 | 0.00 | 0.00 | 0.00 | 78 | 1016.8 |
| 20260504034034 | 46 | 320 | 0.0 | 0.0 | 0.00 | 0.00 | 0.00 | 75 | 1016.8 |
| 20260504033532 | 46 | 320 | 0.0 | 0.0 | 0.00 | 0.00 | 0.00 | 71 | 1016.8 |
| 20260504033030 | 46 | 320 | 0.0 | 0.0 | 0.00 | 0.00 | 0.00 | 73 | 1016.8 |
| 20260504032526 | 46 | 320 | 0.0 | 0.0 | 0.00 | 0.00 | 0.00 | 74 | 1016.5 |
| 20260504032023 | 45 | 320 | 0.0 | 0.0 | 0.00 | 0.00 | 0.00 | 74 | 1016.8 |
| 20260504031520 | 45 | 320 | 0.0 | 0.0 | 0.00 | 0.00 | 0.00 | 77 | 1016.8 |
| 20260504031016 | 45 | 320 | 0.0 | 0.0 | 0.00 | 0.00 | 0.00 | 77 | 1016.8 |
| 20260504030514 | 45 | 320 | 0.0 | 0.0 | 0.00 | 0.00 | 0.00 | 76 | 1016.8 |
| 20260504030010 | 45 | 320 | 0.0 | 0.0 | 0.00 | 0.00 | 0.00 | 77 | 1016.8 |
| 20260504025507 | 45 | 320 | 0.0 | 0.0 | 0.00 | 0.00 | 0.00 | 76 | 1016.5 |
| 20260504025004 | 45 | 320 | 0.0 | 0.0 | 0.00 | 0.00 | 0.00 | 75 | 1016.5 |
| 20260504024500 | 44 | 320 | 0.0 | 0.0 | 0.00 | 0.00 | 0.00 | 75 | 1016.5 |
| 20260504023958 | 45 | 320 | 0.0 | 0.0 | 0.00 | 0.00 | 0.00 | 78 | 1016.5 |
| 20260504023454 | 44 | 320 | 0.0 | 0.0 | 0.00 | 0.00 | 0.00 | 80 | 1016.5 |
| 20260504022950 | 44 | 320 | 0.0 | 0.0 | 0.00 | 0.00 | 0.00 | 80 | 1016.5 |
| 20260504022446 | 44 | 320 | 0.0 | 0.0 | 0.00 | 0.00 | 0.00 | 78 | 1016.5 |
| 20260504021943 | 44 | 320 | 0.0 | 0.0 | 0.00 | 0.00 | 0.00 | 78 | 1016.5 |
| 20260504021440 | 44 | 320 | 0.0 | 0.0 | 0.00 | 0.00 | 0.00 | 77 | 1016.5 |
| 20260504020937 | 44 | 320 | 0.0 | 0.0 | 0.00 | 0.00 | 0.00 | 75 | 1016.5 |
| 20260504020434 | 45 | 320 | 0.0 | 0.0 | 0.00 | 0.00 | 0.00 | 72 | 1016.5 |
| 20260504015931 | 46 | 320 | 0.0 | 0.0 | 0.00 | 0.00 | 0.00 | 66 | 1016.5 |
| 20260504015426 | 46 | 320 | 0.0 | 0.0 | 0.00 | 0.00 | 0.00 | 66 | 1016.1 |
| 20260504014923 | 46 | 320 | 0.0 | 0.0 | 0.00 | 0.00 | 0.00 | 67 | 1016.1 |
| 20260504014419 | 46 | 320 | 0.0 | 0.0 | 0.00 | 0.00 | 0.00 | 67 | 1016.1 |
| 20260504013916 | 45 | 320 | 0.0 | 0.0 | 0.00 | 0.00 | 0.00 | 70 | 1016.1 |
| 20260504013415 | 44 | 320 | 2.0 | 5.0 | 0.00 | 0.00 | 0.00 | 72 | 1015.8 |
| 20260504012910 | 44 | 243 | 0.0 | 0.0 | 0.00 | 0.00 | 0.00 | 74 | 1015.8 |
| 20260504012408 | 45 | 243 | 0.0 | 0.0 | 0.00 | 0.00 | 0.00 | 73 | 1015.8 |
| 20260504011905 | 46 | 243 | 0.0 | 0.0 | 0.00 | 0.00 | 0.00 | 69 | 1016.1 |
| 20260504011402 | 47 | 243 | 0.0 | 0.0 | 0.00 | 0.00 | 0.00 | 66 | 1015.8 |
| 20260504010858 | 47 | 243 | 0.0 | 0.0 | 0.00 | 0.00 | 0.00 | 65 | 1015.8 |
| 20260504010354 | 48 | 243 | 0.0 | 0.0 | 0.00 | 0.00 | 0.00 | 66 | 1015.8 |
| 20260504005850 | 47 | 243 | 0.0 | 0.0 | 0.00 | 0.00 | 0.00 | 68 | 1015.8 |
| 20260504005347 | 48 | 243 | 0.0 | 0.0 | 0.00 | 0.00 | 0.00 | 65 | 1015.8 |
| 20260504004845 | 48 | 243 | 0.0 | 0.0 | 0.00 | 0.00 | 0.00 | 66 | 1015.8 |
| 20260504004343 | 49 | 243 | 0.0 | 0.0 | 0.00 | 0.00 | 0.00 | 67 | 1015.8 |
| 20260504003839 | 49 | 243 | 0.0 | 0.0 | 0.00 | 0.00 | 0.00 | 63 | 1015.8 |
| 20260504003336 | 50 | 243 | 0.0 | 0.0 | 0.00 | 0.00 | 0.00 | 61 | 1015.8 |
| 20260504002832 | 51 | 243 | 0.0 | 0.0 | 0.00 | 0.00 | 0.00 | 56 | 1015.8 |
| 20260504002329 | 51 | 243 | 0.0 | 0.0 | 0.00 | 0.00 | 0.00 | 54 | 1015.8 |
| 20260504001827 | 51 | 243 | 0.0 | 0.0 | 0.00 | 0.00 | 0.00 | 56 | 1015.8 |
| 20260504001324 | 51 | 243 | 0.0 | 0.0 | 0.00 | 0.00 | 0.00 | 56 | 1015.8 |
| 20260504000821 | 52 | 243 | 0.0 | 0.0 | 0.00 | 0.00 | 0.00 | 55 | 1016.1 |
| 20260504000318 | 53 | 243 | 0.0 | 0.0 | 0.00 | 0.00 | 0.00 | 54 | 1015.8 |
| 20260503235815 | 55 | 243 | 0.0 | 0.0 | 0.00 | 0.00 | 0.00 | 47 | 1015.8 |
| 20260503235313 | 56 | 227 | 0.0 | 0.0 | 0.00 | 0.00 | 0.00 | 45 | 1015.8 |
| 20260503234810 | 57 | 227 | 0.0 | 0.0 | 0.00 | 0.00 | 0.00 | 41 | 1015.8 |
| 20260503234308 | 58 | 227 | 2.0 | 3.0 | 0.00 | 0.00 | 0.00 | 37 | 1015.8 |
| 20260503233806 | 59 | 227 | 1.0 | 2.0 | 0.00 | 0.00 | 0.00 | 35 | 1015.8 |
| 20260503233301 | 59 | 227 | 2.0 | 3.0 | 0.00 | 0.00 | 0.00 | 35 | 1015.8 |
| 20260503232758 | 60 | 227 | 2.0 | 3.0 | 0.00 | 0.00 | 0.00 | 34 | 1015.8 |
| 20260503232255 | 61 | 227 | 2.0 | 3.0 | 0.00 | 0.00 | 0.00 | 33 | 1015.8 |
| 20260503231753 | 61 | 227 | 2.0 | 3.0 | 0.00 | 0.00 | 0.00 | 31 | 1015.4 |
| 20260503231250 | 61 | 227 | 1.0 | 3.0 | 0.00 | 0.00 | 0.00 | 31 | 1015.4 |
| 20260503230745 | 62 | 227 | 4.0 | 6.0 | 0.00 | 0.00 | 0.00 | 30 | 1015.4 |
| 20260503230243 | 62 | 234 | 5.0 | 7.0 | 0.00 | 0.00 | 0.00 | 30 | 1015.4 |
| 20260503225741 | 62 | 243 | 5.0 | 7.0 | 0.00 | 0.00 | 0.00 | 28 | 1015.4 |
| 20260503225241 | 63 | 242 | 6.0 | 9.0 | 0.00 | 0.00 | 0.00 | 27 | 1015.4 |
| 20260503224738 | 63 | 239 | 6.0 | 8.0 | 0.00 | 0.00 | 0.00 | 29 | 1015.4 |
| 20260503224236 | 63 | 227 | 4.0 | 6.0 | 0.00 | 0.00 | 0.00 | 30 | 1015.4 |
| 20260503223733 | 63 | 241 | 6.0 | 9.0 | 0.00 | 0.00 | 0.00 | 29 | 1015.4 |
| 20260503223231 | 64 | 210 | 5.0 | 8.0 | 0.00 | 0.00 | 0.00 | 26 | 1015.4 |
| 20260503222726 | 64 | 172 | 3.0 | 5.0 | 0.00 | 0.00 | 0.00 | 27 | 1015.4 |
| 20260503222225 | 64 | 231 | 3.0 | 6.0 | 0.00 | 0.00 | 0.00 | 28 | 1015.4 |
| 20260503221723 | 64 | 252 | 9.0 | 11.0 | 0.00 | 0.00 | 0.00 | 27 | 1015.4 |
| 20260503221221 | 64 | 224 | 4.0 | 6.0 | 0.00 | 0.00 | 0.00 | 28 | 1015.4 |
| 20260503220717 | 64 | 205 | 6.0 | 9.0 | 0.00 | 0.00 | 0.00 | 28 | 1015.4 |
| 20260503220214 | 64 | 234 | 4.0 | 9.0 | 0.00 | 0.00 | 0.00 | 28 | 1015.4 |
| 20260503215711 | 64 | 225 | 6.0 | 10.0 | 0.00 | 0.00 | 0.00 | 26 | 1015.4 |
| 20260503215208 | 65 | 217 | 8.0 | 11.0 | 0.00 | 0.00 | 0.00 | 28 | 1015.4 |
| 20260503214706 | 65 | 213 | 5.0 | 8.0 | 0.00 | 0.00 | 0.00 | 28 | 1015.4 |
| 20260503214201 | 65 | 242 | 7.0 | 10.0 | 0.00 | 0.00 | 0.00 | 28 | 1015.4 |
| 20260503213655 | 64 | 242 | 5.0 | 7.0 | 0.00 | 0.00 | 0.00 | 27 | 1015.4 |
| 20260503213152 | 64 | 208 | 7.0 | 10.0 | 0.00 | 0.00 | 0.00 | 27 | 1015.4 |
| 20260503212649 | 64 | 198 | 6.0 | 9.0 | 0.00 | 0.00 | 0.00 | 27 | 1015.4 |
| 20260503212146 | 65 | 222 | 7.0 | 9.0 | 0.00 | 0.00 | 0.00 | 28 | 1015.4 |
| 20260503211644 | 65 | 216 | 6.0 | 10.0 | 0.00 | 0.00 | 0.00 | 27 | 1015.4 |
| 20260503211139 | 65 | 266 | 5.0 | 9.0 | 0.00 | 0.00 | 0.00 | 27 | 1015.4 |
| 20260503210636 | 65 | 252 | 8.0 | 11.0 | 0.00 | 0.00 | 0.00 | 27 | 1015.4 |
| 20260503210133 | 65 | 243 | 5.0 | 7.0 | 0.00 | 0.00 | 0.00 | 28 | 1015.4 |
| 20260503205628 | 65 | 258 | 6.0 | 10.0 | 0.00 | 0.00 | 0.00 | 27 | 1015.4 |
| 20260503205125 | 65 | 248 | 5.0 | 9.0 | 0.00 | 0.00 | 0.00 | 27 | 1015.4 |
| 20260503204622 | 66 | 248 | 11.0 | 14.0 | 0.00 | 0.00 | 0.00 | 27 | 1015.8 |